owner,sensor,date,latitude,longitude,vertical_datum,direction_of_sea_water_velocity,sea_water_speed,upward_sea_water_velocity,qcFlag 
TABS,ioos:station:wmo:42045:1,2003-11-01T00:00:00Z,26.2168,-96.4998,2.0,5.939418384,20.19842073,-99999.0,'11111222,11111222,99999999' 
TABS,ioos:station:wmo:42045:1,2003-11-01T00:30:00Z,26.2168,-96.4998,2.0,10.14811523,19.92165154,-99999.0,'11111222,11111222,99999999' 
TABS,ioos:station:wmo:42045:1,2003-11-01T01:00:00Z,26.2168,-96.4998,2.0,19.61908108,15.457351,-99999.0,'11111222,11111222,99999999' 
TABS,ioos:station:wmo:42045:1,2003-11-01T01:30:00Z,26.2168,-96.4998,2.0,14.81467578,17.6776271,-99999.0,'11111222,11111222,99999999' 
TABS,ioos:station:wmo:42045:1,2003-11-01T02:00:00Z,26.2168,-96.4998,2.0,12.05096716,13.65082415,-99999.0,'11111222,11111222,99999999' 
TABS,ioos:station:wmo:42045:1,2003-11-01T02:30:00Z,26.2168,-96.4998,2.0,13.5127095,13.26725292,-99999.0,'11111222,11111222,99999999' 
TABS,ioos:station:wmo:42045:1,2003-11-01T03:00:00Z,26.2168,-96.4998,2.0,8.701079161,17.31931869,-99999.0,'11111222,11111222,99999999' 
TABS,ioos:station:wmo:42045:1,2003-11-01T03:30:00Z,26.2168,-96.4998,2.0,19.26460076,12.66941198,-99999.0,'11111222,11111222,99999999' 
TABS,ioos:station:wmo:42045:1,2003-11-01T04:00:00Z,26.2168,-96.4998,2.0,19.78338704,11.02042649,-99999.0,'11111222,11111222,99999999' 
TABS,ioos:station:wmo:42045:1,2003-11-01T04:30:00Z,26.2168,-96.4998,2.0,15.78400265,11.69080408,-99999.0,'11111222,11111222,99999999' 
TABS,ioos:station:wmo:42045:1,2003-11-01T05:00:00Z,26.2168,-96.4998,2.0,8.999188555,10.16512174,-99999.0,'11111222,11111222,99999999' 
TABS,ioos:station:wmo:42045:1,2003-11-01T05:30:00Z,26.2168,-96.4998,2.0,20.91647974,11.54048526,-99999.0,'11111222,11111222,99999999' 
TABS,ioos:station:wmo:42045:1,2003-11-01T06:00:00Z,26.2168,-96.4998,2.0,11.10452393,10.38441621,-99999.0,'11111222,11111222,99999999' 
TABS,ioos:station:wmo:42045:1,2003-11-01T06:30:00Z,26.2168,-96.4998,2.0,10.35437599,12.4629531,-99999.0,'11111222,11111222,99999999' 
TABS,ioos:station:wmo:42045:1,2003-11-01T07:00:00Z,26.2168,-96.4998,2.0,356.7409931,11.60877685,-99999.0,'11111222,11111222,99999999' 
TABS,ioos:station:wmo:42045:1,2003-11-01T07:30:00Z,26.2168,-96.4998,2.0,351.2459835,10.77553247,-99999.0,'11111222,11111222,99999999' 
TABS,ioos:station:wmo:42045:1,2003-11-01T08:00:00Z,26.2168,-96.4998,2.0,350.8715462,13.55163828,-99999.0,'11111222,11111222,99999999' 
TABS,ioos:station:wmo:42045:1,2003-11-01T08:30:00Z,26.2168,-96.4998,2.0,340.4612427,14.77057886,-99999.0,'11111222,11111222,99999999' 
TABS,ioos:station:wmo:42045:1,2003-11-01T09:00:00Z,26.2168,-96.4998,2.0,338.5194182,17.25879486,-99999.0,'11111222,11111222,99999999' 
TABS,ioos:station:wmo:42045:1,2003-11-01T09:30:00Z,26.2168,-96.4998,2.0,343.3938724,15.95549122,-99999.0,'11111222,11111222,99999999' 
TABS,ioos:station:wmo:42045:1,2003-11-01T10:00:00Z,26.2168,-96.4998,2.0,337.9889787,15.7155019,-99999.0,'11111222,11111222,99999999' 
TABS,ioos:station:wmo:42045:1,2003-11-01T10:30:00Z,26.2168,-96.4998,2.0,337.1396169,16.47399162,-99999.0,'11111222,11111222,99999999' 
TABS,ioos:station:wmo:42045:1,2003-11-01T11:00:00Z,26.2168,-96.4998,2.0,339.5310687,13.89748179,-99999.0,'11111222,11111222,99999999' 
TABS,ioos:station:wmo:42045:1,2003-11-01T11:30:00Z,26.2168,-96.4998,2.0,347.9310957,14.06080012,-99999.0,'11111222,11111222,99999999' 
TABS,ioos:station:wmo:42045:1,2003-11-01T12:00:00Z,26.2168,-96.4998,2.0,348.337974,14.98943962,-99999.0,'11111222,11111222,99999999' 
TABS,ioos:station:wmo:42045:1,2003-11-01T12:30:00Z,26.2168,-96.4998,2.0,350.7408382,14.85354167,-99999.0,'11111222,11111222,99999999' 
TABS,ioos:station:wmo:42045:1,2003-11-01T13:00:00Z,26.2168,-96.4998,2.0,354.9400039,17.00628119,-99999.0,'11111222,11111222,99999999' 
TABS,ioos:station:wmo:42045:1,2003-11-01T13:30:00Z,26.2168,-96.4998,2.0,5.786053168,16.66489724,-99999.0,'11111222,11111222,99999999' 
TABS,ioos:station:wmo:42045:1,2003-11-01T14:00:00Z,26.2168,-96.4998,2.0,0.937036891,15.90212564,-99999.0,'11111222,11111222,99999999' 
TABS,ioos:station:wmo:42045:1,2003-11-01T14:30:00Z,26.2168,-96.4998,2.0,1.402904098,12.66379485,-99999.0,'11111222,11111222,99999999' 
TABS,ioos:station:wmo:42045:1,2003-11-01T15:00:00Z,26.2168,-96.4998,2.0,9.521585807,12.75572421,-99999.0,'11111222,11111222,99999999' 
TABS,ioos:station:wmo:42045:1,2003-11-01T15:30:00Z,26.2168,-96.4998,2.0,12.95104861,11.77964346,-99999.0,'11111222,11111222,99999999' 
TABS,ioos:station:wmo:42045:1,2003-11-01T16:00:00Z,26.2168,-96.4998,2.0,19.36778916,11.85062446,-99999.0,'11111222,11111222,99999999' 
TABS,ioos:station:wmo:42045:1,2003-11-01T16:30:00Z,26.2168,-96.4998,2.0,22.66703914,7.499233294,-99999.0,'11133222,11111222,99999999' 
TABS,ioos:station:wmo:42045:1,2003-11-01T17:00:00Z,26.2168,-96.4998,2.0,1.180290943,5.341132839,-99999.0,'11133222,11111222,99999999' 
TABS,ioos:station:wmo:42045:1,2003-11-01T17:30:00Z,26.2168,-96.4998,2.0,347.8321355,6.547090957,-99999.0,'11133222,11111222,99999999' 
TABS,ioos:station:wmo:42045:1,2003-11-01T18:00:00Z,26.2168,-96.4998,2.0,354.1701309,6.202080296,-99999.0,'11133222,11111222,99999999' 
TABS,ioos:station:wmo:42045:1,2003-11-01T18:30:00Z,26.2168,-96.4998,2.0,337.7471454,5.888582172,-99999.0,'11133222,11111222,99999999' 
TABS,ioos:station:wmo:42045:1,2003-11-01T19:00:00Z,26.2168,-96.4998,2.0,322.1062041,5.258840176,-99999.0,'11133222,11111222,99999999' 
TABS,ioos:station:wmo:42045:1,2003-11-01T19:30:00Z,26.2168,-96.4998,2.0,316.6712434,6.06248299,-99999.0,'11133222,11111222,99999999' 
TABS,ioos:station:wmo:42045:1,2003-11-01T20:00:00Z,26.2168,-96.4998,2.0,325.1688086,5.847700403,-99999.0,'11133222,11111222,99999999' 
TABS,ioos:station:wmo:42045:1,2003-11-01T20:30:00Z,26.2168,-96.4998,2.0,319.1790669,9.606836108,-99999.0,'11133222,11111222,99999999' 
TABS,ioos:station:wmo:42045:1,2003-11-01T21:00:00Z,26.2168,-96.4998,2.0,317.3376161,10.40312453,-99999.0,'11111222,11111222,99999999' 
TABS,ioos:station:wmo:42045:1,2003-11-01T21:30:00Z,26.2168,-96.4998,2.0,304.0484199,11.9845317,-99999.0,'11111222,11111222,99999999' 
TABS,ioos:station:wmo:42045:1,2003-11-01T22:00:00Z,26.2168,-96.4998,2.0,306.7491915,13.25402958,-99999.0,'11111222,11111222,99999999' 
TABS,ioos:station:wmo:42045:1,2003-11-01T22:30:00Z,26.2168,-96.4998,2.0,310.3665147,13.21659941,-99999.0,'11111222,11111222,99999999' 
TABS,ioos:station:wmo:42045:1,2003-11-01T23:00:00Z,26.2168,-96.4998,2.0,310.7956686,16.97382102,-99999.0,'11111222,11111222,99999999' 
TABS,ioos:station:wmo:42045:1,2003-11-01T23:30:00Z,26.2168,-96.4998,2.0,319.9262564,18.03419252,-99999.0,'11111222,11111222,99999999' 
TABS,ioos:station:wmo:42045:1,2003-11-02T00:00:00Z,26.2168,-96.4998,2.0,336.8117846,14.88227133,-99999.0,'11111222,11111222,99999999' 
TABS,ioos:station:wmo:42045:1,2003-11-02T00:30:00Z,26.2168,-96.4998,2.0,337.5545744,15.68853403,-99999.0,'11111222,11111222,99999999' 
TABS,ioos:station:wmo:42045:1,2003-11-02T01:00:00Z,26.2168,-96.4998,2.0,346.2579934,16.54357277,-99999.0,'11111222,11111222,99999999' 
TABS,ioos:station:wmo:42045:1,2003-11-02T01:30:00Z,26.2168,-96.4998,2.0,344.0281157,11.77454882,-99999.0,'11111222,11111222,99999999' 
TABS,ioos:station:wmo:42045:1,2003-11-02T02:00:00Z,26.2168,-96.4998,2.0,353.6362594,10.64560003,-99999.0,'11111222,11111222,99999999' 
TABS,ioos:station:wmo:42045:1,2003-11-02T02:30:00Z,26.2168,-96.4998,2.0,351.3242448,13.65626596,-99999.0,'11111222,11111222,99999999' 
TABS,ioos:station:wmo:42045:1,2003-11-02T03:00:00Z,26.2168,-96.4998,2.0,6.600608039,9.482852946,-99999.0,'11133222,11111222,99999999' 
TABS,ioos:station:wmo:42045:1,2003-11-02T03:30:00Z,26.2168,-96.4998,2.0,358.7851668,12.73286299,-99999.0,'11111222,11111222,99999999' 
TABS,ioos:station:wmo:42045:1,2003-11-02T04:00:00Z,26.2168,-96.4998,2.0,351.9774892,11.32079944,-99999.0,'11111222,11111222,99999999' 
TABS,ioos:station:wmo:42045:1,2003-11-02T04:30:00Z,26.2168,-96.4998,2.0,8.174042059,11.11289341,-99999.0,'11111222,11111222,99999999' 
TABS,ioos:station:wmo:42045:1,2003-11-02T05:00:00Z,26.2168,-96.4998,2.0,20.89172981,10.99269303,-99999.0,'11111222,11111222,99999999' 
TABS,ioos:station:wmo:42045:1,2003-11-02T05:30:00Z,26.2168,-96.4998,2.0,19.43174124,11.27206281,-99999.0,'11111222,11111222,99999999' 
TABS,ioos:station:wmo:42045:1,2003-11-02T06:00:00Z,26.2168,-96.4998,2.0,12.94796236,10.08645131,-99999.0,'11111222,11111222,99999999' 
TABS,ioos:station:wmo:42045:1,2003-11-02T06:30:00Z,26.2168,-96.4998,2.0,15.19011076,11.56401747,-99999.0,'11111222,11111222,99999999' 
TABS,ioos:station:wmo:42045:1,2003-11-02T07:00:00Z,26.2168,-96.4998,2.0,26.46302281,10.0310169,-99999.0,'11111222,11111222,99999999' 
TABS,ioos:station:wmo:42045:1,2003-11-02T07:30:00Z,26.2168,-96.4998,2.0,47.37590241,13.30504416,-99999.0,'11111222,11111222,99999999' 
TABS,ioos:station:wmo:42045:1,2003-11-02T08:00:00Z,26.2168,-96.4998,2.0,93.07576977,10.99584012,-99999.0,'11111222,11111222,99999999' 
TABS,ioos:station:wmo:42045:1,2003-11-02T08:30:00Z,26.2168,-96.4998,2.0,115.9378372,12.66584778,-99999.0,'11111222,11111222,99999999' 
TABS,ioos:station:wmo:42045:1,2003-11-02T09:00:00Z,26.2168,-96.4998,2.0,119.3708246,14.25189461,-99999.0,'11111222,11111222,99999999' 
TABS,ioos:station:wmo:42045:1,2003-11-02T09:30:00Z,26.2168,-96.4998,2.0,126.7404761,9.746024831,-99999.0,'11133222,11111222,99999999' 
TABS,ioos:station:wmo:42045:1,2003-11-02T10:00:00Z,26.2168,-96.4998,2.0,123.1613919,10.82266141,-99999.0,'11111222,11111222,99999999' 
TABS,ioos:station:wmo:42045:1,2003-11-02T10:30:00Z,26.2168,-96.4998,2.0,124.0906511,10.31212878,-99999.0,'11111222,11111222,99999999' 
TABS,ioos:station:wmo:42045:1,2003-11-02T11:00:00Z,26.2168,-96.4998,2.0,123.0630798,10.39293029,-99999.0,'11111222,11111222,99999999' 
TABS,ioos:station:wmo:42045:1,2003-11-02T11:30:00Z,26.2168,-96.4998,2.0,128.6597179,10.62918623,-99999.0,'11111222,11111222,99999999' 
TABS,ioos:station:wmo:42045:1,2003-11-02T12:00:00Z,26.2168,-96.4998,2.0,125.3090418,9.325459774,-99999.0,'11133222,11111222,99999999' 
TABS,ioos:station:wmo:42045:1,2003-11-02T12:30:00Z,26.2168,-96.4998,2.0,136.0185923,8.352251194,-99999.0,'11133222,11111222,99999999' 
TABS,ioos:station:wmo:42045:1,2003-11-02T13:00:00Z,26.2168,-96.4998,2.0,132.3067885,8.126561388,-99999.0,'11133222,11111222,99999999' 
TABS,ioos:station:wmo:42045:1,2003-11-02T13:30:00Z,26.2168,-96.4998,2.0,137.3994513,7.431137194,-99999.0,'11133222,11111222,99999999' 
TABS,ioos:station:wmo:42045:1,2003-11-02T14:00:00Z,26.2168,-96.4998,2.0,136.1348022,8.211120508,-99999.0,'11133222,11111222,99999999' 
TABS,ioos:station:wmo:42045:1,2003-11-02T14:30:00Z,26.2168,-96.4998,2.0,144.6466882,9.747415042,-99999.0,'11133222,11111222,99999999' 
TABS,ioos:station:wmo:42045:1,2003-11-02T15:00:00Z,26.2168,-96.4998,2.0,133.1522888,9.430636246,-99999.0,'11133222,11111222,99999999' 
TABS,ioos:station:wmo:42045:1,2003-11-02T15:30:00Z,26.2168,-96.4998,2.0,162.9318583,8.483643085,-99999.0,'11133222,11111222,99999999' 
TABS,ioos:station:wmo:42045:1,2003-11-02T16:00:00Z,26.2168,-96.4998,2.0,143.0231166,6.434011191,-99999.0,'11133222,11111222,99999999' 
TABS,ioos:station:wmo:42045:1,2003-11-02T16:30:00Z,26.2168,-96.4998,2.0,159.6720293,8.52066312,-99999.0,'11133222,11111222,99999999' 
TABS,ioos:station:wmo:42045:1,2003-11-02T17:00:00Z,26.2168,-96.4998,2.0,126.5709077,7.284099121,-99999.0,'11133222,11111222,99999999' 
TABS,ioos:station:wmo:42045:1,2003-11-02T17:30:00Z,26.2168,-96.4998,2.0,167.1576061,5.353923795,-99999.0,'11133222,11111222,99999999' 
TABS,ioos:station:wmo:42045:1,2003-11-02T18:00:00Z,26.2168,-96.4998,2.0,157.7114124,6.117025421,-99999.0,'11133222,11111222,99999999' 
TABS,ioos:station:wmo:42045:1,2003-11-02T18:30:00Z,26.2168,-96.4998,2.0,156.7541222,4.788747227,-99999.0,'11133222,11111222,99999999' 
TABS,ioos:station:wmo:42045:1,2003-11-02T19:00:00Z,26.2168,-96.4998,2.0,185.3854809,2.983169455,-99999.0,'11133222,11111222,99999999' 
TABS,ioos:station:wmo:42045:1,2003-11-02T19:30:00Z,26.2168,-96.4998,2.0,12.23168278,2.926431274,-99999.0,'11133222,11111222,99999999' 
TABS,ioos:station:wmo:42045:1,2003-11-02T20:00:00Z,26.2168,-96.4998,2.0,77.9123728,5.63493567,-99999.0,'11133222,11111222,99999999' 
TABS,ioos:station:wmo:42045:1,2003-11-02T20:30:00Z,26.2168,-96.4998,2.0,94.77948874,6.000866604,-99999.0,'11133222,11111222,99999999' 
TABS,ioos:station:wmo:42045:1,2003-11-02T21:00:00Z,26.2168,-96.4998,2.0,104.613685,6.737981894,-99999.0,'11133222,11111222,99999999' 
TABS,ioos:station:wmo:42045:1,2003-11-02T21:30:00Z,26.2168,-96.4998,2.0,107.3380686,6.4427401,-99999.0,'11133222,11111222,99999999' 
TABS,ioos:station:wmo:42045:1,2003-11-02T22:00:00Z,26.2168,-96.4998,2.0,126.4068983,9.654315097,-99999.0,'11133222,11111222,99999999' 
TABS,ioos:station:wmo:42045:1,2003-11-02T22:30:00Z,26.2168,-96.4998,2.0,115.6903143,8.788771245,-99999.0,'11133222,11111222,99999999' 
TABS,ioos:station:wmo:42045:1,2003-11-02T23:00:00Z,26.2168,-96.4998,2.0,125.9307882,11.34952422,-99999.0,'11111222,11111222,99999999' 
TABS,ioos:station:wmo:42045:1,2003-11-02T23:30:00Z,26.2168,-96.4998,2.0,136.7258706,10.09499381,-99999.0,'11111222,11111222,99999999' 
TABS,ioos:station:wmo:42045:1,2003-11-03T00:00:00Z,26.2168,-96.4998,2.0,146.1205195,8.395433282,-99999.0,'11133222,11111222,99999999' 
TABS,ioos:station:wmo:42045:1,2003-11-03T00:30:00Z,26.2168,-96.4998,2.0,160.1201768,10.41036503,-99999.0,'11111222,11111222,99999999' 
TABS,ioos:station:wmo:42045:1,2003-11-03T01:00:00Z,26.2168,-96.4998,2.0,168.2315281,6.619131363,-99999.0,'11133222,11111222,99999999' 
TABS,ioos:station:wmo:42045:1,2003-11-03T01:30:00Z,26.2168,-96.4998,2.0,191.6135588,6.656275235,-99999.0,'11133222,11111222,99999999' 
TABS,ioos:station:wmo:42045:1,2003-11-03T02:00:00Z,26.2168,-96.4998,2.0,188.7529093,6.242707746,-99999.0,'11133222,11111222,99999999' 
TABS,ioos:station:wmo:42045:1,2003-11-03T02:30:00Z,26.2168,-96.4998,2.0,189.8190672,6.860502897,-99999.0,'11133222,11111222,99999999' 
TABS,ioos:station:wmo:42045:1,2003-11-03T03:00:00Z,26.2168,-96.4998,2.0,194.0360002,7.297896957,-99999.0,'11133222,11111222,99999999' 
TABS,ioos:station:wmo:42045:1,2003-11-03T03:30:00Z,26.2168,-96.4998,2.0,216.5223589,8.250151514,-99999.0,'11133222,11111222,99999999' 
TABS,ioos:station:wmo:42045:1,2003-11-03T04:00:00Z,26.2168,-96.4998,2.0,226.3271533,7.935867942,-99999.0,'11133222,11111222,99999999' 
TABS,ioos:station:wmo:42045:1,2003-11-03T04:30:00Z,26.2168,-96.4998,2.0,224.9385364,6.625594313,-99999.0,'11133222,11111222,99999999' 
TABS,ioos:station:wmo:42045:1,2003-11-03T05:00:00Z,26.2168,-96.4998,2.0,219.3332545,7.304751878,-99999.0,'11133222,11111222,99999999' 
TABS,ioos:station:wmo:42045:1,2003-11-03T05:30:00Z,26.2168,-96.4998,2.0,197.1735539,4.741402746,-99999.0,'11133222,11111222,99999999' 
TABS,ioos:station:wmo:42045:1,2003-11-03T06:00:00Z,26.2168,-96.4998,2.0,224.6085938,4.14374227,-99999.0,'11133222,11111222,99999999' 
TABS,ioos:station:wmo:42045:1,2003-11-03T06:30:00Z,26.2168,-96.4998,2.0,236.3095903,2.343608329,-99999.0,'11133222,11111222,99999999' 
TABS,ioos:station:wmo:42045:1,2003-11-03T07:00:00Z,26.2168,-96.4998,2.0,244.0056241,2.69235956,-99999.0,'11133222,11111222,99999999' 
TABS,ioos:station:wmo:42045:1,2003-11-03T07:30:00Z,26.2168,-96.4998,2.0,252.3906346,2.413068586,-99999.0,'11133222,11111222,99999999' 
TABS,ioos:station:wmo:42045:1,2003-11-03T08:00:00Z,26.2168,-96.4998,2.0,297.5654818,1.793599732,-99999.0,'11133222,11111222,99999999' 
TABS,ioos:station:wmo:42045:1,2003-11-03T08:30:00Z,26.2168,-96.4998,2.0,293.4942128,4.841332461,-99999.0,'11133222,11111222,99999999' 
TABS,ioos:station:wmo:42045:1,2003-11-03T09:00:00Z,26.2168,-96.4998,2.0,292.7763222,8.188491925,-99999.0,'11133222,11111222,99999999' 
TABS,ioos:station:wmo:42045:1,2003-11-03T09:30:00Z,26.2168,-96.4998,2.0,316.4309785,7.080346037,-99999.0,'11133222,11111222,99999999' 
TABS,ioos:station:wmo:42045:1,2003-11-03T10:00:00Z,26.2168,-96.4998,2.0,338.3533706,3.44280409,-99999.0,'11133222,11111222,99999999' 
TABS,ioos:station:wmo:42045:1,2003-11-03T10:30:00Z,26.2168,-96.4998,2.0,327.5290941,2.607680962,-99999.0,'11133222,11111222,99999999' 
TABS,ioos:station:wmo:42045:1,2003-11-03T11:00:00Z,26.2168,-96.4998,2.0,0.281759276,4.07004914,-99999.0,'11133222,11111222,99999999' 
TABS,ioos:station:wmo:42045:1,2003-11-03T11:30:00Z,26.2168,-96.4998,2.0,17.00941804,4.95682358,-99999.0,'11133222,11111222,99999999' 
TABS,ioos:station:wmo:42045:1,2003-11-03T12:00:00Z,26.2168,-96.4998,2.0,17.56459406,6.660525505,-99999.0,'11133222,11111222,99999999' 
TABS,ioos:station:wmo:42045:1,2003-11-03T12:30:00Z,26.2168,-96.4998,2.0,33.63811227,9.15255702,-99999.0,'11133222,11111222,99999999' 
TABS,ioos:station:wmo:42045:1,2003-11-03T13:00:00Z,26.2168,-96.4998,2.0,50.6283326,9.300865551,-99999.0,'11133222,11111222,99999999' 
TABS,ioos:station:wmo:42045:1,2003-11-03T13:30:00Z,26.2168,-96.4998,2.0,61.3810849,10.73107637,-99999.0,'11111222,11111222,99999999' 
TABS,ioos:station:wmo:42045:1,2003-11-03T14:00:00Z,26.2168,-96.4998,2.0,65.93619483,8.608118261,-99999.0,'11133222,11111222,99999999' 
TABS,ioos:station:wmo:42045:1,2003-11-03T14:30:00Z,26.2168,-96.4998,2.0,76.0531044,9.33520755,-99999.0,'11133222,11111222,99999999' 
TABS,ioos:station:wmo:42045:1,2003-11-03T15:00:00Z,26.2168,-96.4998,2.0,80.04745208,10.18324604,-99999.0,'11111222,11111222,99999999' 
TABS,ioos:station:wmo:42045:1,2003-11-03T15:30:00Z,26.2168,-96.4998,2.0,93.26765727,11.5788255,-99999.0,'11111222,11111222,99999999' 
TABS,ioos:station:wmo:42045:1,2003-11-03T16:00:00Z,26.2168,-96.4998,2.0,85.68915467,12.50537884,-99999.0,'11111222,11111222,99999999' 
TABS,ioos:station:wmo:42045:1,2003-11-03T16:30:00Z,26.2168,-96.4998,2.0,96.99034507,13.72200058,-99999.0,'11111222,11111222,99999999' 
TABS,ioos:station:wmo:42045:1,2003-11-03T17:00:00Z,26.2168,-96.4998,2.0,108.3923226,17.01938307,-99999.0,'11111222,11111222,99999999' 
TABS,ioos:station:wmo:42045:1,2003-11-03T17:30:00Z,26.2168,-96.4998,2.0,112.1233413,17.8437468,-99999.0,'11111222,11111222,99999999' 
TABS,ioos:station:wmo:42045:1,2003-11-03T18:00:00Z,26.2168,-96.4998,2.0,115.0523672,19.48294126,-99999.0,'11111222,11111222,99999999' 
TABS,ioos:station:wmo:42045:1,2003-11-03T18:30:00Z,26.2168,-96.4998,2.0,116.1996226,18.93540863,-99999.0,'11111222,11111222,99999999' 
TABS,ioos:station:wmo:42045:1,2003-11-03T19:00:00Z,26.2168,-96.4998,2.0,112.630614,20.40076959,-99999.0,'11111222,11111222,99999999' 
TABS,ioos:station:wmo:42045:1,2003-11-03T19:30:00Z,26.2168,-96.4998,2.0,111.9794725,16.72565993,-99999.0,'11111222,11111222,99999999' 
TABS,ioos:station:wmo:42045:1,2003-11-03T20:00:00Z,26.2168,-96.4998,2.0,121.2646152,18.28543136,-99999.0,'11111222,11111222,99999999' 
TABS,ioos:station:wmo:42045:1,2003-11-03T20:30:00Z,26.2168,-96.4998,2.0,125.5636224,15.35398971,-99999.0,'11111222,11111222,99999999' 
TABS,ioos:station:wmo:42045:1,2003-11-03T21:00:00Z,26.2168,-96.4998,2.0,124.9086677,17.47423532,-99999.0,'11111222,11111222,99999999' 
TABS,ioos:station:wmo:42045:1,2003-11-03T21:30:00Z,26.2168,-96.4998,2.0,128.2945319,15.92692375,-99999.0,'11111222,11111222,99999999' 
TABS,ioos:station:wmo:42045:1,2003-11-03T22:00:00Z,26.2168,-96.4998,2.0,130.2999172,16.91430164,-99999.0,'11111222,11111222,99999999' 
TABS,ioos:station:wmo:42045:1,2003-11-03T22:30:00Z,26.2168,-96.4998,2.0,129.3831823,15.4608732,-99999.0,'11111222,11111222,99999999' 
TABS,ioos:station:wmo:42045:1,2003-11-03T23:00:00Z,26.2168,-96.4998,2.0,130.4168571,14.15912427,-99999.0,'11111222,11111222,99999999' 
TABS,ioos:station:wmo:42045:1,2003-11-03T23:30:00Z,26.2168,-96.4998,2.0,142.9727888,14.58005487,-99999.0,'11111222,11111222,99999999' 
TABS,ioos:station:wmo:42045:1,2003-11-04T00:00:00Z,26.2168,-96.4998,2.0,151.2767027,14.6074125,-99999.0,'11111222,11111222,99999999' 
TABS,ioos:station:wmo:42045:1,2003-11-04T00:30:00Z,26.2168,-96.4998,2.0,164.3755915,11.02747931,-99999.0,'11111222,11111222,99999999' 
TABS,ioos:station:wmo:42045:1,2003-11-04T01:00:00Z,26.2168,-96.4998,2.0,176.6908769,9.355597255,-99999.0,'11133222,11111222,99999999' 
TABS,ioos:station:wmo:42045:1,2003-11-04T01:30:00Z,26.2168,-96.4998,2.0,187.9912267,9.350807452,-99999.0,'11133222,11111222,99999999' 
TABS,ioos:station:wmo:42045:1,2003-11-04T02:00:00Z,26.2168,-96.4998,2.0,184.0004552,8.1699082,-99999.0,'11133222,11111222,99999999' 
TABS,ioos:station:wmo:42045:1,2003-11-04T02:30:00Z,26.2168,-96.4998,2.0,188.4317849,8.319933894,-99999.0,'11133222,11111222,99999999' 
TABS,ioos:station:wmo:42045:1,2003-11-04T03:00:00Z,26.2168,-96.4998,2.0,186.468272,8.876508323,-99999.0,'11133222,11111222,99999999' 
TABS,ioos:station:wmo:42045:1,2003-11-04T03:30:00Z,26.2168,-96.4998,2.0,186.4016979,7.174740413,-99999.0,'11133222,11111222,99999999' 
TABS,ioos:station:wmo:42045:1,2003-11-04T04:00:00Z,26.2168,-96.4998,2.0,227.9445432,5.643093123,-99999.0,'11133222,11111222,99999999' 
TABS,ioos:station:wmo:42045:1,2003-11-04T04:30:00Z,26.2168,-96.4998,2.0,185.9962496,4.786188463,-99999.0,'11133222,11111222,99999999' 
TABS,ioos:station:wmo:42045:1,2003-11-04T05:00:00Z,26.2168,-96.4998,2.0,274.6358735,4.82578491,-99999.0,'11133222,11111222,99999999' 
TABS,ioos:station:wmo:42045:1,2003-11-04T05:30:00Z,26.2168,-96.4998,2.0,291.7425132,7.180842569,-99999.0,'11133222,11111222,99999999' 
TABS,ioos:station:wmo:42045:1,2003-11-04T06:00:00Z,26.2168,-96.4998,2.0,285.0076512,7.298945129,-99999.0,'11133222,11111222,99999999' 
TABS,ioos:station:wmo:42045:1,2003-11-04T06:30:00Z,26.2168,-96.4998,2.0,322.7636386,9.998204839,-99999.0,'11133222,11111222,99999999' 
TABS,ioos:station:wmo:42045:1,2003-11-04T07:00:00Z,26.2168,-96.4998,2.0,319.7804675,12.21887884,-99999.0,'11111222,11111222,99999999' 
TABS,ioos:station:wmo:42045:1,2003-11-04T07:30:00Z,26.2168,-96.4998,2.0,320.8942861,11.43070427,-99999.0,'11111222,11111222,99999999' 
TABS,ioos:station:wmo:42045:1,2003-11-04T08:00:00Z,26.2168,-96.4998,2.0,329.9267723,10.59646167,-99999.0,'11111222,11111222,99999999' 
TABS,ioos:station:wmo:42045:1,2003-11-04T08:30:00Z,26.2168,-96.4998,2.0,339.3369076,11.87384521,-99999.0,'11111222,11111222,99999999' 
TABS,ioos:station:wmo:42045:1,2003-11-04T09:00:00Z,26.2168,-96.4998,2.0,353.5930002,14.15843565,-99999.0,'11111222,11111222,99999999' 
TABS,ioos:station:wmo:42045:1,2003-11-04T09:30:00Z,26.2168,-96.4998,2.0,10.91218621,15.53081131,-99999.0,'11111222,11111222,99999999' 
TABS,ioos:station:wmo:42045:1,2003-11-04T10:00:00Z,26.2168,-96.4998,2.0,16.54929924,16.81661381,-99999.0,'11111222,11111222,99999999' 
TABS,ioos:station:wmo:42045:1,2003-11-04T10:30:00Z,26.2168,-96.4998,2.0,21.19118127,17.95404411,-99999.0,'11111222,11111222,99999999' 
TABS,ioos:station:wmo:42045:1,2003-11-04T11:00:00Z,26.2168,-96.4998,2.0,28.59052766,20.49966097,-99999.0,'11111222,11111222,99999999' 
TABS,ioos:station:wmo:42045:1,2003-11-04T11:30:00Z,26.2168,-96.4998,2.0,28.28557626,20.25896345,-99999.0,'11111222,11111222,99999999' 
TABS,ioos:station:wmo:42045:1,2003-11-04T12:00:00Z,26.2168,-96.4998,2.0,38.41974391,19.74522221,-99999.0,'11111222,11111222,99999999' 
TABS,ioos:station:wmo:42045:1,2003-11-04T12:30:00Z,26.2168,-96.4998,2.0,42.13106768,21.33186583,-99999.0,'11111222,11111222,99999999' 
TABS,ioos:station:wmo:42045:1,2003-11-04T13:00:00Z,26.2168,-96.4998,2.0,45.21238183,20.99414442,-99999.0,'11111222,11111222,99999999' 
TABS,ioos:station:wmo:42045:1,2003-11-04T13:30:00Z,26.2168,-96.4998,2.0,52.28231134,20.13820498,-99999.0,'11111222,11111222,99999999' 
TABS,ioos:station:wmo:42045:1,2003-11-04T14:00:00Z,26.2168,-96.4998,2.0,48.9484385,22.0787794,-99999.0,'11111222,11111222,99999999' 
TABS,ioos:station:wmo:42045:1,2003-11-04T14:30:00Z,26.2168,-96.4998,2.0,57.79344625,21.42692932,-99999.0,'11111222,11111222,99999999' 
TABS,ioos:station:wmo:42045:1,2003-11-04T15:00:00Z,26.2168,-96.4998,2.0,64.28145455,22.09923528,-99999.0,'11111222,11111222,99999999' 
TABS,ioos:station:wmo:42045:1,2003-11-04T15:30:00Z,26.2168,-96.4998,2.0,64.13862654,22.21477436,-99999.0,'11111222,11111222,99999999' 
TABS,ioos:station:wmo:42045:1,2003-11-04T16:00:00Z,26.2168,-96.4998,2.0,67.87750862,21.53542663,-99999.0,'11111222,11111222,99999999' 